Temperature
23 21 21 22 27 30 30 30 30 30 30 29 28 28 29 28 28 26 22 22 21 20 19 20 19 19 19 19 19 19 19 19 19 19 19 19 19 19 19 19 19 18 18 18 18 18 18 18 18
22 21 22 26 30 30 29 30 30 30 29 28 28 28 28 27 24 22 21 21 21 20 19 19 20 19 19 19 19 19 19 19 19 19 19 19 19 19 18 19 18 18 18 18 18 18 18 18 18
22 22 25 30 31 30 30 30 30 29 28 28 28 28 27 25 22 22 21 20 20 20 19 19 20 20 19 19 19 19 19 19 19 19 19 19 19 18 18 18 18 18 18 18 18 18 18 18 18
22 25 28 31 30 30 31 31 30 30 29 28 28 28 25 23 22 22 21 21 20 19 19 19 20 20 20 19 19 19 19 19 19 19 19 19 18 18 18 18 18 18 18 18 18 18 18 18 18
24 28 30 31 31 31 31 31 30 30 30 29 29 28 25 22 21 21 21 21 20 20 19 19 20 20 20 19 19 19 19 19 19 19 19 19 18 18 18 18 18 18 18 18 18 18 18 18 18
27 30 31 31 31 31 31 30 30 31 30 29 28 28 24 21 21 21 21 21 21 20 20 19 20 20 19 19 19 19 19 19 19 19 19 18 18 18 18 18 18 18 18 18 18 18 18 18 18
29 31 31 31 31 31 31 30 31 31 30 29 28 28 24 21 21 21 20 21 21 20 20 19 19 19 19 19 19 19 19 19 19 19 18 18 18 18 18 18 18 18 18 18 18 18 18 18 18
28 31 31 31 31 31 31 31 30 30 30 28 28 28 26 22 21 20 20 20 20 20 20 19 19 18 18 19 19 19 19 19 19 18 18 18 18 18 18 18 18 18 18 18 18 18 18 18 17
27 31 31 31 31 31 31 31 30 29 29 28 27 27 25 22 21 20 20 20 20 20 19 19 19 18 18 18 18 18 19 18 18 18 18 18 17 17 17 17 18 18 18 18 18 18 18 17 17
29 31 31 31 32 32 31 31 31 30 30 28 26 24 22 22 21 20 20 20 20 19 19 19 19 18 18 18 18 18 18 18 18 17 17 18 17 17 17 18 18 18 18 18 18 18 18 17 17
30 30 31 31 30 31 31 31 31 31 31 30 28 24 22 21 21 21 21 20 20 19 19 19 18 18 18 18 18 18 18 18 18 17 17 17 17 17 17 17 17 18 17 17 17 17 17 17 17
30 30 30 30 30 30 31 31 31 31 31 29 28 25 23 22 21 21 21 20 20 19 19 19 18 18 18 18 18 18 18 18 18 18 18 18 17 17 17 17 17 17 17 17 17 17 17 17 17
29 30 30 30 30 30 30 31 31 31 29 28 26 24 23 22 22 21 21 20 20 19 19 19 18 18 19 18 18 18 18 18 18 18 18 17 17 17 17 17 17 17 17 17 17 17 17 17 17
30 30 30 30 30 30 31 31 31 30 28 27 26 24 24 23 22 21 20 20 20 20 19 19 19 19 19 19 19 18 18 18 18 18 17 18 17 17 17 17 17 17 17 17 17 17 17 17 17
29 30 31 31 31 31 31 31 31 30 28 27 26 25 24 23 22 21 21 21 21 20 20 19 19 19 19 19 19 18 18 18 18 18 18 18 17 17 17 17 17 17 17 17 17 17 17 17 17
30 30 30 31 31 31 31 31 31 29 28 28 27 25 23 22 22 21 21 21 20 20 20 19 19 19 19 19 19 18 18 18 18 18 18 18 18 18 18 17 17 17 17 17 17 17 17 17 17
29 30 30 31 31 31 31 31 31 29 28 28 27 26 24 22 22 21 20 20 20 20 20 20 19 19 19 19 19 18 18 18 18 18 18 18 18 18 18 17 17 17 17 17 17 17 17 17 17
30 30 30 30 31 30 30 31 31 29 28 28 27 26 24 23 22 21 20 20 20 20 20 20 20 19 19 19 18 18 18 18 18 18 18 18 18 18 17 17 17 17 17 17 17 17 17 17 17
30 30 30 30 30 30 30 30 30 29 29 28 28 26 25 24 22 21 20 20 19 19 20 20 20 19 19 19 18 18 18 18 18 18 18 18 18 17 18 17 17 17 17 17 17 17 17 17 17
28 29 29 29 29 29 30 30 30 30 29 28 27 26 25 24 22 21 20 20 19 19 20 20 20 19 19 19 19 18 18 18 18 18 18 18 18 17 17 17 17 17 17 17 17 17 17 17 17
28 29 29 29 29 29 30 30 30 29 28 27 27 26 25 24 23 21 20 20 19 19 19 19 19 19 19 18 18 18 18 18 18 18 18 18 18 17 17 17 17 17 17 17 17 17 17 17 17
28 29 29 28 29 29 29 29 30 30 29 28 27 26 26 24 23 22 21 20 20 19 19 19 19 19 19 18 18 18 18 18 18 18 18 18 18 17 17 17 17 17 17 17 17 17 17 17 17
29 29 28 28 29 29 29 29 30 30 29 29 28 27 26 24 23 22 21 20 20 19 19 19 19 19 18 18 18 18 18 18 18 18 18 17 17 17 17 17 17 17 17 17 17 17 17 17 17
28 28 28 28 29 28 29 29 29 30 29 29 28 26 25 24 23 22 21 20 19 19 19 18 18 19 18 18 18 18 18 18 18 18 17 17 17 17 17 17 17 17 17 17 17 17 17 17 17
28 28 27 27 27 28 29 28 29 29 29 29 28 26 25 24 23 22 21 20 19 19 18 18 18 18 18 18 18 18 18 18 18 17 17 17 17 17 17 17 17 17 17 17 17 17 17 17 17
28 28 28 27 27 28 27 28 29 29 28 27 26 26 25 24 23 22 21 20 19 19 18 18 18 18 18 18 18 18 17 17 17 17 17 17 17 17 17 17 17 17 17 17 17 17 17 17 17
28 28 30 29 28 28 28 28 29 28 28 27 26 26 25 24 23 22 21 20 19 19 18 18 18 18 18 18 17 17 17 17 17 17 17 17 17 17 17 17 17 17 17 17 17 17 17 17 17
29 29 29 28 27 27 28 28 28 28 28 27 27 26 25 24 23 22 21 20 19 19 18 18 18 18 18 17 17 17 17 17 17 17 17 17 17 17 17 17 17 17 17 17 17 17 17 17 17
27 28 28 28 28 27 27 28 29 28 28 27 27 25 24 23 23 22 21 20 19 19 18 18 18 18 17 17 17 17 17 17 17 17 17 17 17 16 16 16 16 16 16 16 17 17 16 16 16
29 28 28 27 27 27 28 28 28 28 28 27 26 24 23 23 22 21 21 20 19 19 18 18 18 17 17 17 17 17 17 17 17 17 17 17 17 16 16 16 16 16 16 16 16 16 16 16 16
Wind_Speed
9 7 4 4 4 4 10 9 8 7 6 5 5 2 2 4 3 5 9 18 19 19 21 19 17 16 16 16 17 16 16 16 15 15 14 14 13 13 13 13 13 13 14 14 14 15 14 15 15
5 4 5 4 1 7 9 7 8 8 7 6 5 3 3 5 6 9 14 18 20 20 20 19 19 17 16 16 16 16 15 15 15 14 14 13 13 13 13 13 13 14 14 14 14 14 14 15 15
4 5 4 3 3 6 8 7 7 7 6 4 4 4 4 5 7 9 14 20 20 18 19 20 19 18 17 16 16 16 15 15 14 14 13 13 13 13 13 13 13 14 14 14 14 14 14 14 14
4 4 4 2 6 6 5 5 5 6 5 3 3 6 5 6 5 11 19 20 19 18 18 21 19 18 17 16 16 15 15 14 14 13 13 12 13 13 12 13 13 13 14 14 14 14 13 13 13
5 4 4 3 6 4 2 3 3 3 3 3 3 6 6 5 8 16 20 20 19 18 18 21 18 18 17 16 15 15 14 14 14 13 12 12 12 12 12 12 13 13 13 13 13 13 12 12 12
4 4 3 4 6 4 3 3 3 2 3 3 3 6 6 7 12 18 19 18 18 17 17 20 18 17 16 16 15 14 14 13 13 13 12 12 12 12 12 12 13 13 13 13 12 12 11 11 11
5 4 2 4 5 5 3 2 3 2 3 3 3 5 7 10 14 17 17 16 16 16 16 18 18 17 16 15 14 14 13 13 13 12 12 12 12 12 12 12 12 12 12 11 11 10 10 10 10
5 4 4 4 4 5 3 2 1 2 2 4 3 3 7 14 16 17 16 15 15 15 15 15 16 16 16 15 14 13 13 13 12 12 12 12 12 12 11 12 11 11 11 10 10 10 9 9 10
4 5 5 3 2 3 2 1 1 2 4 4 2 3 10 20 19 18 16 15 15 14 14 14 15 15 14 14 15 14 13 12 13 12 12 12 11 12 11 11 11 10 10 10 9 9 9 9 10
5 6 2 1 1 2 1 3 2 5 6 6 6 8 17 20 20 19 19 18 18 17 16 14 14 13 13 12 13 12 12 13 11 11 12 9 7 7 9 13 10 10 10 9 8 8 9 8 8
6 5 1 2 3 4 4 3 4 6 5 6 9 14 19 21 19 19 18 17 17 17 15 15 13 13 12 10 11 9 9 10 10 10 10 8 8 8 8 9 10 10 10 9 10 9 6 5 4
6 5 5 4 4 6 6 4 4 7 2 1 7 17 21 21 20 19 18 17 16 16 16 14 14 12 11 10 9 8 8 8 8 10 10 9 6 6 6 6 8 8 7 6 7 5 5 3 3
10 6 6 7 7 7 7 6 5 5 2 3 10 17 20 20 19 17 16 16 15 15 15 14 13 12 11 9 7 8 8 8 9 9 9 8 7 6 6 5 5 6 6 7 5 5 5 4 4
6 8 8 7 7 6 7 6 6 3 3 6 12 16 18 18 19 17 16 16 16 16 15 14 13 12 11 9 8 7 8 7 8 9 10 9 7 6 6 6 6 6 6 6 5 5 5 4 3
7 9 9 8 7 5 6 9 8 4 5 8 10 13 15 16 17 17 17 17 16 16 16 15 14 13 12 11 10 9 8 9 8 8 9 10 8 7 7 6 6 6 6 5 5 5 5 5 5
9 11 11 7 6 6 9 10 5 3 6 8 9 11 13 14 16 15 16 15 15 15 15 15 14 14 13 11 10 8 9 10 9 9 9 10 9 9 7 6 6 6 6 6 5 5 5 4 4
11 11 10 8 6 5 9 9 3 3 6 8 9 11 12 13 14 14 14 15 15 15 15 15 15 15 14 13 11 10 9 9 9 10 10 10 10 10 9 7 6 7 6 6 6 6 5 5 4
10 10 9 8 5 6 8 8 3 4 7 8 9 10 11 12 14 14 13 14 14 14 14 14 15 14 13 11 10 9 9 9 9 10 10 10 10 11 10 8 8 8 6 6 5 4 4 4 4
6 8 8 6 2 6 7 7 5 4 6 8 8 9 10 10 11 12 13 13 14 14 14 14 15 14 12 11 11 11 10 10 9 10 11 12 11 11 10 8 8 8 7 7 7 6 7 6 4
10 10 9 6 3 5 7 7 5 4 6 6 7 8 9 9 10 11 12 13 14 14 14 15 15 14 14 12 10 9 9 9 10 9 10 12 12 12 11 10 9 9 7 8 8 7 6 5 5
13 12 9 6 4 7 8 10 8 5 5 5 6 7 8 9 10 12 13 13 14 14 14 13 14 13 14 12 9 8 7 7 8 9 9 11 13 13 12 11 10 9 9 8 9 8 8 6 6
12 9 8 7 8 7 7 9 8 7 6 6 6 6 7 8 9 11 12 13 13 13 13 13 13 13 13 13 12 12 11 10 10 9 9 10 12 13 13 12 11 10 9 8 9 9 7 7 6
9 6 8 8 9 9 8 9 5 6 6 6 6 6 6 7 8 9 10 11 11 12 12 12 12 13 13 13 14 13 12 10 8 8 9 10 10 12 13 13 12 11 10 9 9 8 9 8 7
7 7 6 8 10 12 10 9 6 5 4 3 3 4 5 6 6 7 8 8 9 10 10 11 11 12 12 13 13 13 13 11 10 10 10 9 9 10 13 13 12 11 10 10 10 9 10 8 7
13 11 8 9 9 9 6 8 4 1 1 2 2 3 4 5 6 7 7 8 8 9 9 10 11 11 11 12 12 13 13 13 12 12 11 10 9 10 12 12 11 11 10 10 10 10 10 10 9
17 16 10 7 8 7 7 7 3 2 1 1 2 3 4 5 5 6 7 7 8 8 8 8 10 9 10 11 11 11 11 10 10 11 10 11 9 10 11 12 11 11 11 11 10 10 10 9 9
16 16 13 8 6 7 6 5 4 4 3 3 3 4 5 5 6 6 7 7 7 8 8 8 8 8 9 10 9 10 11 10 10 9 10 9 9 9 11 11 11 11 11 10 10 9 9 9 9
11 13 10 10 7 8 7 8 6 6 4 4 3 4 5 6 6 6 7 7 6 7 7 7 8 8 8 8 8 8 9 10 9 9 9 9 9 9 9 10 10 10 10 10 9 8 9 9 8
12 13 11 11 9 7 6 4 2 4 3 3 3 4 5 6 6 6 6 7 7 6 7 7 7 7 7 8 8 7 8 8 9 8 9 9 9 9 9 9 10 10 9 9 9 9 8 9 9
14 14 14 11 9 9 8 2 5 3 3 3 4 5 5 6 6 6 6 7 6 7 6 7 7 7 7 7 7 7 7 7 7 8 8 8 8 9 10 9 9 9 9 9 9 9 9 9 10
Wind_Direction
199 206 232 246 238 97 75 72 70 81 82 89 117 93 50 41 19 79 125 145 143 144 141 147 143 140 137 135 134 133 133 133 133 131 129 127 124 121 119 117 115 113 112 111 110 108 107 106 106
197 215 241 249 257 91 83 75 75 70 86 113 119 101 80 70 60 110 137 144 146 144 146 149 143 142 140 138 136 135 135 135 134 133 131 129 126 123 121 119 116 114 113 112 112 112 111 108 107
208 241 268 256 72 71 83 83 87 95 112 125 110 72 55 69 105 130 142 147 147 144 144 142 148 146 144 142 140 139 138 136 135 133 132 131 128 125 121 119 118 117 115 114 114 114 113 111 110
233 238 245 233 97 73 68 91 111 122 119 114 115 97 84 72 118 136 144 150 147 147 148 145 152 149 148 146 145 143 141 139 137 136 134 132 129 126 123 121 120 118 117 115 115 115 114 115 114
248 260 226 133 99 92 96 110 147 140 115 118 119 103 96 86 116 137 148 151 151 151 148 147 154 152 151 150 148 146 144 141 139 137 136 133 131 130 128 125 123 120 119 117 118 118 117 118 118
243 247 210 128 108 107 118 153 178 158 126 129 131 116 96 115 136 146 152 155 154 153 150 146 154 155 154 154 152 150 148 144 141 139 138 135 131 129 128 127 126 123 122 121 122 122 120 119 121
270 254 180 127 120 111 88 154 198 179 169 153 140 119 121 139 144 151 155 157 156 156 151 152 159 159 158 157 156 154 151 147 144 142 140 137 132 130 129 128 128 127 127 127 127 125 124 123 124
278 254 184 156 139 107 90 154 184 216 153 125 166 146 146 152 152 153 155 160 161 161 159 159 164 161 164 162 160 157 155 151 147 146 144 140 136 134 137 141 130 132 133 133 130 127 126 129 131
257 238 186 157 141 104 93 207 152 173 153 155 139 68 129 146 153 155 159 164 167 167 166 167 164 165 169 164 157 163 160 157 155 155 151 160 159 150 157 132 132 138 138 137 134 131 132 140 141
237 232 163 72 327 341 319 275 214 192 187 177 145 118 134 149 159 165 169 172 173 174 174 172 171 167 172 165 161 172 173 166 176 161 165 170 152 150 137 125 139 144 145 145 140 142 162 185 154
231 244 236 243 286 304 287 266 224 230 214 203 181 157 155 160 167 173 177 179 177 178 178 175 174 172 176 168 170 175 175 169 174 166 170 160 157 157 151 150 153 158 166 164 154 177 180 167 135
232 239 256 268 288 287 286 272 234 237 267 79 170 162 165 169 175 179 180 181 179 182 183 179 175 177 181 177 174 177 177 174 174 168 176 167 171 167 159 163 161 168 169 165 172 175 164 158 153
229 238 247 262 271 280 277 256 253 245 232 142 151 164 172 175 179 182 180 180 181 184 185 182 178 178 181 182 187 185 184 179 174 172 178 179 176 176 165 166 169 175 163 172 184 180 169 180 181
233 247 254 256 258 253 254 245 235 236 179 166 166 173 178 179 180 180 182 184 184 186 186 182 182 182 184 186 192 190 190 184 180 181 178 187 187 176 176 178 180 181 184 182 188 184 187 200 186
244 248 243 233 231 228 243 232 226 222 185 185 183 180 180 182 183 185 185 187 189 187 185 184 184 186 190 194 198 198 195 187 189 183 181 190 195 183 191 187 189 187 186 180 196 194 200 202 199
228 235 230 202 214 212 234 237 193 186 198 198 192 183 183 186 189 189 187 187 187 186 185 186 188 187 192 199 203 203 200 192 191 188 187 193 198 194 201 201 197 186 194 192 191 202 206 205 212
216 224 220 192 197 215 234 248 196 195 209 205 198 191 188 188 193 192 191 190 188 187 186 186 191 190 193 198 201 205 201 198 196 193 194 191 198 200 207 210 196 197 203 203 210 190 213 209 217
214 220 215 210 189 229 237 248 238 215 217 214 202 197 194 195 196 191 191 190 190 190 190 190 192 193 191 196 200 204 203 201 202 201 198 194 198 204 210 210 200 206 203 205 215 189 209 225 221
246 235 223 210 202 243 239 247 244 217 214 217 210 203 202 201 192 187 189 190 188 189 190 193 194 192 190 193 196 199 201 201 203 205 200 198 203 205 211 216 200 210 206 208 206 205 201 215 210
231 230 224 203 207 251 243 244 239 222 217 220 213 207 206 194 183 182 187 191 192 191 192 194 194 194 197 197 197 199 198 202 204 206 201 201 202 206 209 216 210 208 207 209 211 212 220 210 199
225 231 229 227 227 231 247 235 215 200 208 213 214 211 208 199 193 187 188 192 194 194 196 197 197 197 201 198 193 193 194 202 205 207 208 208 208 210 216 211 215 213 214 208 211 207 213 215 208
222 224 235 236 242 226 235 249 204 205 210 210 207 205 204 199 196 192 192 193 196 197 195 198 196 197 198 195 195 196 199 203 209 208 207 208 212 215 214 214 216 218 218 211 212 209 215 219 218
224 207 222 231 240 251 227 254 220 192 225 213 205 205 203 196 195 193 193 194 197 195 194 195 195 198 197 197 197 199 206 211 211 211 210 212 212 216 217 216 215 215 220 216 219 210 218 217 225
198 187 200 225 235 238 230 245 242 205 224 217 188 193 194 190 186 184 186 186 189 191 191 191 193 197 198 199 203 206 210 210 209 209 211 212 212 215 216 216 213 215 219 214 214 215 216 225 229
201 201 204 210 219 231 198 233 245 130 214 257 219 185 177 176 175 175 175 177 180 184 185 190 194 195 196 200 206 213 216 213 213 215 214 214 214 213 213 214 213 214 214 213 212 212 220 218 220
204 212 221 223 223 207 184 228 199 135 142 189 188 167 165 168 164 167 168 172 176 178 180 186 189 192 196 203 207 211 215 214 216 216 214 215 217 216 209 211 212 212 210 211 209 214 213 213 217
201 216 231 247 248 238 205 201 192 171 172 165 163 157 153 156 159 161 160 165 169 173 177 183 186 191 196 202 205 207 209 214 216 213 212 215 215 213 208 207 210 211 210 211 209 216 215 210 214
218 209 216 231 228 231 216 217 213 184 177 157 153 156 148 153 156 154 155 154 154 162 169 179 187 195 199 202 207 206 208 210 211 212 209 209 213 214 208 206 205 208 207 206 209 212 212 213 215
195 202 212 224 238 244 229 201 145 169 163 159 147 145 146 152 152 151 152 150 152 159 164 172 179 190 198 201 205 205 203 203 202 205 206 206 208 206 205 205 204 204 205 206 207 214 209 212 215
205 206 207 216 219 240 261 169 104 134 141 133 126 126 132 142 148 151 149 148 155 163 169 174 182 191 197 196 198 200 197 192 196 200 201 202 202 200 199 200 201 204 205 204 206 214 211 212 213
Height
1498 1498 1498 1500 1493 1485 1490 1488 1485 1487 1488 1492 1495 1495 1495 1496 1500 1510 1513 1514 1518 1522 1524 1526 1529 1532 1535 1537 1539 1541 1542 1544 1545 1547 1548 1549 1550 1551 1552 1553 1554 1555 1556 1557 1558 1559 1560 1560 1561
1500 1499 1501 1497 1486 1493 1495 1487 1488 1489 1493 1495 1496 1497 1497 1501 1506 1509 1512 1516 1520 1523 1526 1528 1530 1534 1536 1538 1541 1543 1544 1546 1547 1549 1550 1551 1552 1553 1555 1555 1556 1557 1558 1559 1560 1561 1562 1562 1563
1500 1500 1500 1488 1486 1491 1493 1488 1489 1492 1495 1496 1497 1499 1501 1505 1509 1511 1514 1517 1522 1525 1528 1529 1532 1535 1538 1540 1542 1544 1546 1547 1549 1550 1552 1553 1554 1555 1557 1558 1559 1560 1561 1561 1562 1563 1564 1565 1566
1503 1502 1498 1487 1489 1488 1487 1488 1491 1492 1495 1497 1497 1500 1505 1509 1511 1512 1514 1519 1523 1526 1529 1530 1533 1536 1539 1541 1543 1545 1547 1549 1551 1552 1554 1555 1556 1557 1558 1559 1561 1562 1563 1564 1564 1565 1566 1567 1568
1503 1499 1489 1487 1488 1488 1487 1489 1491 1491 1494 1497 1498 1501 1507 1511 1511 1513 1516 1521 1525 1528 1531 1532 1534 1537 1540 1542 1544 1547 1549 1550 1552 1554 1555 1556 1558 1559 1560 1561 1562 1564 1565 1566 1567 1567 1568 1570 1571
1501 1493 1488 1490 1490 1488 1488 1490 1491 1492 1495 1498 1500 1502 1509 1512 1513 1515 1519 1523 1527 1530 1533 1533 1536 1538 1541 1544 1546 1548 1550 1552 1553 1555 1557 1558 1559 1560 1562 1563 1564 1565 1567 1568 1569 1570 1571 1572 1573
1499 1489 1487 1487 1489 1489 1489 1491 1491 1491 1495 1498 1500 1502 1510 1513 1515 1517 1521 1525 1529 1532 1534 1535 1537 1539 1542 1544 1547 1549 1551 1553 1554 1556 1558 1559 1560 1562 1563 1564 1566 1567 1568 1569 1571 1572 1573 1574 1575
1499 1491 1487 1486 1488 1489 1490 1491 1492 1493 1495 1500 1502 1502 1508 1512 1515 1518 1522 1526 1529 1532 1535 1536 1539 1541 1543 1546 1548 1550 1552 1554 1555 1557 1559 1560 1561 1563 1564 1566 1567 1568 1570 1571 1572 1573 1574 1576 1576
1501 1492 1488 1486 1487 1487 1490 1490 1492 1495 1497 1500 1502 1504 1506 1509 1514 1518 1522 1525 1529 1532 1535 1538 1540 1542 1545 1548 1548 1550 1553 1554 1556 1558 1559 1561 1564 1565 1566 1567 1568 1569 1571 1572 1574 1575 1576 1577 1578
1498 1489 1487 1487 1487 1487 1489 1490 1491 1493 1495 1499 1502 1505 1506 1509 1513 1516 1520 1523 1527 1530 1534 1537 1540 1542 1546 1548 1549 1552 1554 1555 1558 1560 1561 1563 1565 1566 1568 1567 1569 1570 1572 1573 1575 1576 1577 1579 1581
1494 1489 1488 1489 1490 1490 1489 1489 1490 1490 1490 1494 1499 1503 1505 1508 1512 1516 1520 1523 1526 1529 1533 1536 1539 1541 1545 1547 1549 1552 1554 1555 1558 1559 1561 1563 1565 1567 1568 1569 1570 1571 1573 1575 1576 1578 1580 1581 1582
1494 1491 1492 1491 1490 1490 1489 1488 1489 1489 1490 1493 1496 1500 1503 1507 1510 1513 1517 1522 1525 1529 1531 1535 1537 1540 1543 1546 1549 1551 1554 1555 1558 1559 1561 1563 1565 1567 1569 1569 1571 1573 1574 1575 1578 1579 1580 1581 1582
1493 1491 1491 1491 1490 1489 1489 1488 1488 1488 1491 1494 1496 1499 1502 1505 1509 1513 1517 1520 1524 1527 1530 1533 1535 1538 1541 1544 1547 1550 1553 1555 1557 1558 1560 1562 1565 1566 1568 1569 1571 1573 1574 1576 1577 1579 1580 1581 1582
1490 1490 1489 1489 1488 1488 1488 1486 1488 1488 1491 1493 1496 1498 1501 1505 1508 1512 1515 1518 1520 1524 1528 1531 1533 1536 1539 1542 1545 1548 1551 1553 1556 1557 1559 1561 1564 1566 1567 1568 1570 1572 1574 1576 1577 1578 1579 1581 1582
1492 1490 1486 1485 1485 1486 1487 1485 1484 1487 1490 1493 1495 1498 1501 1504 1507 1509 1512 1515 1518 1522 1525 1528 1531 1534 1537 1540 1543 1547 1549 1552 1554 1556 1557 1559 1562 1564 1566 1569 1570 1572 1573 1574 1576 1577 1579 1580 1581
1488 1487 1486 1481 1483 1484 1487 1484 1481 1486 1488 1491 1494 1497 1500 1502 1505 1508 1511 1513 1516 1519 1522 1525 1528 1531 1534 1538 1541 1545 1548 1550 1552 1554 1556 1557 1560 1562 1565 1567 1569 1570 1572 1573 1575 1577 1578 1580 1581
1485 1485 1482 1481 1481 1481 1482 1480 1479 1485 1487 1488 1492 1495 1498 1501 1504 1506 1509 1511 1514 1517 1519 1522 1525 1528 1532 1535 1539 1542 1544 1547 1549 1551 1554 1556 1558 1560 1563 1566 1568 1569 1571 1573 1575 1576 1577 1578 1579
1482 1480 1481 1481 1479 1480 1480 1478 1479 1483 1485 1486 1489 1492 1495 1498 1501 1503 1506 1509 1511 1514 1517 1519 1522 1525 1528 1532 1535 1538 1541 1543 1546 1549 1551 1553 1556 1558 1561 1564 1565 1567 1569 1570 1573 1574 1575 1576 1578
1479 1480 1481 1480 1479 1481 1480 1478 1477 1480 1482 1484 1486 1490 1493 1496 1499 1501 1504 1506 1508 1511 1513 1515 1518 1521 1524 1528 1531 1534 1537 1540 1543 1545 1548 1550 1553 1556 1559 1562 1563 1565 1567 1569 1571 1572 1574 1575 1576
1482 1484 1482 1480 1480 1480 1478 1477 1475 1478 1480 1482 1485 1488 1491 1494 1496 1498 1501 1503 1505 1507 1509 1511 1514 1517 1520 1523 1526 1530 1533 1537 1539 1542 1544 1547 1549 1552 1556 1558 1561 1563 1564 1566 1568 1570 1572 1573 1574
1482 1482 1480 1481 1479 1478 1479 1478 1475 1476 1479 1482 1484 1486 1488 1490 1493 1495 1497 1500 1502 1504 1506 1508 1511 1514 1517 1520 1523 1526 1530 1533 1536 1538 1541 1543 1546 1549 1552 1555 1558 1560 1562 1564 1565 1567 1569 1571 1572
1482 1477 1479 1482 1483 1478 1479 1483 1473 1471 1475 1478 1481 1483 1485 1488 1490 1492 1494 1497 1499 1501 1503 1505 1508 1510 1513 1516 1519 1521 1524 1527 1530 1533 1537 1540 1542 1546 1549 1552 1554 1556 1559 1561 1563 1565 1567 1568 1570
1474 1475 1478 1479 1480 1480 1478 1482 1472 1469 1472 1472 1476 1480 1482 1485 1487 1490 1492 1494 1496 1498 1500 1502 1504 1507 1509 1512 1514 1517 1520 1524 1527 1530 1533 1535 1538 1542 1545 1548 1550 1553 1555 1558 1560 1561 1563 1565 1567
1474 1477 1479 1478 1477 1490 1479 1482 1477 1467 1470 1470 1473 1478 1481 1483 1486 1488 1490 1492 1494 1496 1498 1499 1501 1503 1506 1508 1511 1513 1516 1519 1522 1525 1528 1531 1534 1538 1541 1544 1546 1549 1551 1553 1556 1558 1560 1562 1564
1474 1479 1488 1491 1490 1485 1473 1479 1474 1466 1467 1470 1472 1476 1479 1482 1484 1486 1489 1490 1492 1494 1495 1497 1499 1500 1503 1505 1507 1510 1512 1514 1517 1521 1523 1527 1530 1533 1536 1540 1542 1545 1547 1550 1552 1554 1556 1558 1560
1470 1471 1481 1490 1487 1477 1478 1478 1467 1466 1469 1472 1473 1475 1478 1480 1483 1485 1487 1489 1490 1492 1493 1495 1496 1498 1500 1502 1504 1506 1508 1511 1514 1517 1520 1523 1526 1529 1532 1535 1538 1541 1544 1546 1548 1550 1552 1554 1556
1466 1466 1458 1467 1472 1477 1472 1469 1465 1465 1468 1470 1472 1475 1477 1480 1482 1484 1486 1488 1489 1491 1492 1493 1495 1496 1498 1500 1501 1503 1505 1508 1510 1513 1516 1519 1522 1525 1528 1531 1534 1537 1540 1542 1545 1547 1549 1551 1553
1456 1458 1464 1470 1484 1486 1477 1473 1468 1465 1466 1468 1471 1473 1476 1479 1481 1483 1485 1487 1488 1490 1491 1492 1493 1495 1496 1498 1499 1501 1503 1505 1507 1510 1512 1515 1518 1521 1524 1527 1530 1533 1536 1538 1541 1543 1545 1547 1549
1461 1461 1461 1463 1464 1477 1481 1473 1457 1461 1464 1466 1469 1473 1476 1478 1480 1483 1485 1486 1488 1489 1491 1492 1493 1494 1495 1497 1498 1500 1501 1503 1505 1506 1509 1511 1513 1516 1519 1522 1526 1529 1532 1534 1537 1540 1542 1543 1545
1452 1454 1459 1469 1472 1469 1468 1469 1459 1461 1464 1467 1470 1474 1476 1479 1481 1483 1484 1486 1487 1489 1491 1492 1493 1494 1495 1496 1497 1498 1499 1501 1502 1504 1506 1508 1510 1512 1516 1519 1522 1525 1528 1531 1533 1536 1538 1540 1541